| time (UTC) | temp F | wind direction | speed knots | gust knots | rain 1hr in | rain 24hr in | rain mn in | humidity % | barometer mb |
| 20260506174659 | 52 | 225 | 0.0 | 31.3 | 0.00 | 0.14 | 0.14 | 73 | 1012.3 |
| 20260506173442 | 52 | 270 | 4.3 | 31.3 | 0.00 | 0.14 | 0.14 | 75 | 1012.3 |
| 20260506172224 | 52 | 225 | 5.2 | 31.3 | 0.00 | 0.14 | 0.14 | 74 | 1012.1 |
| 20260506171007 | 52 | 292 | 4.3 | 31.3 | 0.00 | 0.14 | 0.14 | 74 | 1012.0 |
| 20260506165750 | 52 | 315 | 7.0 | 31.3 | 0.00 | 0.14 | 0.14 | 75 | 1011.8 |
| 20260506164533 | 52 | 270 | 2.6 | 31.3 | 0.00 | 0.14 | 0.14 | 75 | 1011.9 |
| 20260506163314 | 52 | 315 | 2.6 | 31.3 | 0.00 | 0.14 | 0.14 | 75 | 1012.0 |
| 20260506162057 | 52 | 315 | 7.0 | 31.3 | 0.00 | 0.14 | 0.14 | 75 | 1011.9 |
| 20260506160840 | 53 | 315 | 4.3 | 31.3 | 0.00 | 0.14 | 0.14 | 75 | 1011.7 |
| 20260506155623 | 53 | 315 | 6.1 | 31.3 | 0.00 | 0.14 | 0.14 | 75 | 1011.8 |
| 20260506154406 | 53 | 225 | 4.3 | 31.3 | 0.00 | 0.14 | 0.14 | 75 | 1011.8 |
| 20260506153148 | 52 | 292 | 4.3 | 31.3 | 0.00 | 0.14 | 0.14 | 76 | 1012.0 |
| 20260506151931 | 52 | 292 | 6.1 | 31.3 | 0.00 | 0.14 | 0.14 | 77 | 1011.9 |
| 20260506150714 | 52 | 270 | 0.0 | 31.3 | 0.00 | 0.14 | 0.14 | 77 | 1011.8 |
| 20260506145457 | 52 | 225 | 9.6 | 31.3 | 0.00 | 0.14 | 0.14 | 75 | 1011.9 |
| 20260506144239 | 52 | 315 | 10.4 | 31.3 | 0.00 | 0.14 | 0.14 | 76 | 1011.9 |
| 20260506143022 | 52 | 45 | 5.2 | 31.3 | 0.00 | 0.14 | 0.14 | 77 | 1011.8 |
| 20260506141805 | 52 | 270 | 7.0 | 31.3 | 0.00 | 0.14 | 0.14 | 85 | 1011.5 |
| 20260506140548 | 52 | 315 | 5.2 | 31.3 | 0.00 | 0.14 | 0.14 | 85 | 1011.5 |
| 20260506135331 | 52 | 292 | 5.2 | 31.3 | 0.00 | 0.14 | 0.14 | 85 | 1011.5 |
| 20260506134114 | 52 | 270 | 4.3 | 31.3 | 0.01 | 0.14 | 0.14 | 85 | 1011.5 |
| 20260506132856 | 51 | 315 | 5.2 | 31.3 | 0.03 | 0.14 | 0.14 | 85 | 1011.6 |
| 20260506131639 | 51 | 315 | 5.2 | 31.3 | 0.06 | 0.14 | 0.14 | 85 | 1011.6 |
| 20260506130422 | 50 | 292 | 12.2 | 31.3 | 0.07 | 0.14 | 0.14 | 88 | 1011.8 |
| 20260506125205 | 50 | 315 | 2.6 | 31.3 | 0.08 | 0.14 | 0.14 | 89 | 1011.8 |
| 20260506123943 | 49 | 270 | 5.2 | 31.3 | 0.09 | 0.13 | 0.13 | 89 | 1011.8 |
| 20260506122725 | 49 | 315 | 4.3 | 31.3 | 0.07 | 0.09 | 0.09 | 90 | 1011.5 |
| 20260506121508 | 50 | 292 | 7.0 | 31.3 | 0.06 | 0.07 | 0.07 | 90 | 1011.4 |
| 20260506120251 | 49 | 315 | 12.2 | 31.3 | 0.05 | 0.06 | 0.06 | 86 | 1011.5 |
| 20260506115034 | 50 | 315 | 16.5 | 31.3 | 0.03 | 0.04 | 0.04 | 84 | 1011.3 |
| 20260506113817 | 50 | 270 | 0.9 | 26.1 | 0.02 | 0.03 | 0.03 | 83 | 1011.0 |
| 20260506112600 | 51 | 270 | 15.6 | 26.1 | 0.01 | 0.02 | 0.02 | 84 | 1010.4 |
| 20260506111342 | 53 | 270 | 5.2 | 16.5 | 0.00 | 0.01 | 0.01 | 82 | 1010.0 |
| 20260506110125 | 54 | 22 | 2.6 | 16.5 | 0.00 | 0.01 | 0.01 | 81 | 1009.9 |
| 20260506104908 | 55 | 315 | 5.2 | 13.9 | 0.00 | 0.02 | 0.01 | 78 | 1009.8 |
| 20260506103651 | 56 | 292 | 3.5 | 7.8 | 0.00 | 0.02 | 0.01 | 76 | 1009.6 |
| 20260506102433 | 57 | 270 | 3.5 | 7.0 | 0.01 | 0.03 | 0.01 | 74 | 1009.5 |
| 20260506101216 | 59 | 270 | 0.0 | 6.1 | 0.01 | 0.03 | 0.01 | 73 | 1009.2 |
| 20260506095959 | 57 | 225 | 2.6 | 6.1 | 0.01 | 0.03 | 0.01 | 77 | 1009.4 |
| 20260506094742 | 57 | 315 | 2.6 | 6.1 | 0.01 | 0.03 | 0.01 | 76 | 1009.3 |
| 20260506093525 | 57 | 225 | 0.0 | 6.1 | 0.01 | 0.03 | 0.01 | 81 | 1009.3 |
| 20260506092308 | 54 | 315 | 1.7 | 6.1 | 0.00 | 0.02 | 0.00 | 82 | 1009.6 |
| 20260506091050 | 54 | 270 | 0.0 | 6.1 | 0.00 | 0.02 | 0.00 | 82 | 1009.4 |
| 20260506085833 | 54 | 180 | 0.0 | 6.1 | 0.00 | 0.02 | 0.00 | 81 | 1009.4 |
| 20260506084616 | 54 | 315 | 0.0 | 6.1 | 0.00 | 0.02 | 0.00 | 79 | 1009.4 |
| 20260506083359 | 54 | 315 | 0.0 | 6.1 | 0.00 | 0.02 | 0.00 | 79 | 1009.3 |
| 20260506082142 | 54 | 270 | 2.6 | 6.1 | 0.00 | 0.02 | 0.00 | 78 | 1009.3 |
| 20260506080925 | 54 | 180 | 1.7 | 6.1 | 0.00 | 0.02 | 0.00 | 78 | 1009.3 |
| 20260506073233 | 55 | 180 | 0.9 | 6.1 | 0.00 | 0.02 | 0.00 | 78 | 1009.0 |
| 20260506072016 | 54 | 135 | 2.6 | 6.1 | 0.00 | 0.02 | 0.00 | 80 | 1009.3 |
| 20260506070759 | 53 | 225 | 4.3 | 6.1 | 0.00 | 0.03 | 0.00 | 80 | 1009.4 |
| 20260506061850 | 52 | 315 | 0.0 | 5.2 | 0.00 | 0.03 | 0.00 | 84 | 1009.3 |
| 20260506060633 | 51 | 315 | 0.0 | 5.2 | 0.00 | 0.03 | 0.00 | 86 | 1009.5 |
| 20260506050507 | 48 | 90 | 0.0 | 5.2 | 0.00 | 0.03 | 0.00 | 94 | 1010.0 |
| 20260506044032 | 47 | 135 | 0.0 | 5.2 | 0.00 | 0.03 | 0.00 | 94 | 1010.2 |
| 20260506042815 | 47 | 315 | 0.0 | 5.2 | 0.00 | 0.03 | 0.00 | 94 | 1010.2 |
| 20260506041558 | 47 | 180 | 0.9 | 5.2 | 0.00 | 0.03 | 0.00 | 94 | 1010.1 |
| 20260506040341 | 48 | 180 | 0.0 | 5.2 | 0.00 | 0.03 | 0.00 | 93 | 1009.9 |
| 20260506035123 | 48 | 270 | 0.0 | 5.2 | 0.00 | 0.03 | 0.00 | 93 | 1010.0 |
| 20260506033906 | 48 | 292 | 0.0 | 5.2 | 0.00 | 0.03 | 0.00 | 93 | 1010.2 |
| 20260506032649 | 48 | 135 | 0.0 | 5.2 | 0.00 | 0.03 | 0.00 | 92 | 1010.3 |
| 20260506031432 | 48 | 135 | 0.0 | 5.2 | 0.00 | 0.03 | 0.00 | 92 | 1010.5 |
| 20260506030215 | 48 | 315 | 0.0 | 5.2 | 0.00 | 0.03 | 0.00 | 92 | 1010.5 |
| 20260506024958 | 48 | 270 | 0.0 | 5.2 | 0.00 | 0.03 | 0.00 | 91 | 1010.6 |
| 20260506023740 | 49 | 135 | 0.9 | 5.2 | 0.00 | 0.03 | 0.00 | 91 | 1010.9 |
| 20260506022523 | 49 | 112 | 0.0 | 5.2 | 0.00 | 0.03 | 0.00 | 88 | 1010.8 |
| 20260506021306 | 50 | 90 | 0.0 | 5.2 | 0.00 | 0.03 | 0.00 | 87 | 1010.8 |
| 20260506020049 | 50 | 315 | 0.9 | 5.2 | 0.00 | 0.03 | 0.00 | 87 | 1010.8 |
| 20260506014832 | 50 | 315 | 2.6 | 5.2 | 0.00 | 0.03 | 0.00 | 86 | 1010.9 |
| 20260506013614 | 50 | 135 | 0.9 | 5.2 | 0.00 | 0.03 | 0.00 | 86 | 1011.2 |
| 20260506012357 | 50 | 225 | 0.0 | 5.2 | 0.00 | 0.03 | 0.00 | 86 | 1011.4 |
| 20260506011140 | 50 | 270 | 0.0 | 5.2 | 0.00 | 0.03 | 0.00 | 86 | 1011.5 |
| 20260506005923 | 50 | 180 | 0.9 | 5.2 | 0.00 | 0.03 | 0.00 | 86 | 1011.4 |
| 20260506004706 | 50 | 225 | 1.7 | 5.2 | 0.00 | 0.03 | 0.00 | 84 | 1011.6 |
| 20260506003448 | 50 | 315 | 0.0 | 5.2 | 0.00 | 0.03 | 0.00 | 85 | 1011.8 |
| 20260506002231 | 50 | 180 | 0.0 | 5.2 | 0.00 | 0.03 | 0.00 | 85 | 1012.0 |
| 20260506001014 | 50 | 315 | 3.5 | 5.2 | 0.00 | 0.03 | 0.00 | 85 | 1011.8 |
| 20260505235756 | 50 | 292 | 0.0 | 3.5 | 0.00 | 0.03 | 0.00 | 86 | 1011.9 |
| 20260505234539 | 50 | 292 | 0.0 | 3.5 | 0.00 | 0.03 | 0.00 | 87 | 1012.0 |
| 20260505233322 | 50 | 135 | 0.0 | 3.5 | 0.00 | 0.03 | 0.00 | 88 | 1012.1 |
| 20260505232105 | 50 | 315 | 0.0 | 3.5 | 0.00 | 0.03 | 0.00 | 87 | 1012.3 |
| 20260505230848 | 50 | 270 | 0.9 | 3.5 | 0.00 | 0.03 | 0.00 | 87 | 1012.4 |
| 20260505225630 | 50 | 135 | 0.9 | 2.6 | 0.00 | 0.03 | 0.00 | 88 | 1012.5 |
| 20260505224413 | 50 | 315 | 0.0 | 2.6 | 0.00 | 0.03 | 0.00 | 89 | 1012.4 |
| 20260505223156 | 50 | 315 | 0.0 | 1.7 | 0.00 | 0.03 | 0.00 | 90 | 1012.4 |
| 20260505221939 | 50 | 315 | 0.0 | 1.7 | 0.00 | 0.03 | 0.00 | 89 | 1012.4 |
| 20260505220722 | 50 | 315 | 0.0 | 1.7 | 0.00 | 0.03 | 0.00 | 88 | 1012.4 |
| 20260505215504 | 50 | 270 | 0.0 | 26.9 | 0.00 | 0.03 | 0.03 | 89 | 1012.6 |
| 20260505214247 | 50 | 270 | 0.0 | 26.9 | 0.00 | 0.03 | 0.03 | 88 | 1012.6 |
| 20260505213030 | 51 | 315 | 0.9 | 26.9 | 0.00 | 0.03 | 0.03 | 90 | 1012.6 |
| 20260505211813 | 51 | 315 | 0.0 | 26.9 | 0.00 | 0.03 | 0.03 | 90 | 1012.6 |
| 20260505210555 | 50 | 45 | 0.0 | 26.9 | 0.00 | 0.03 | 0.03 | 91 | 1012.7 |
| 20260505205338 | 50 | 315 | 0.0 | 26.9 | 0.00 | 0.03 | 0.03 | 88 | 1012.7 |
| 20260505204121 | 51 | 315 | 0.0 | 26.9 | 0.00 | 0.03 | 0.03 | 88 | 1012.7 |
| 20260505202904 | 52 | 315 | 1.7 | 26.9 | 0.00 | 0.03 | 0.03 | 88 | 1012.6 |
| 20260505201647 | 51 | 315 | 0.0 | 26.9 | 0.00 | 0.03 | 0.03 | 83 | 1012.4 |
| 20260505200430 | 52 | 315 | 0.9 | 26.9 | 0.00 | 0.03 | 0.03 | 84 | 1012.2 |
| 20260505195212 | 52 | 315 | 0.0 | 26.9 | 0.00 | 0.04 | 0.03 | 83 | 1012.1 |
| 20260505193955 | 53 | 270 | 0.0 | 26.9 | 0.00 | 0.04 | 0.03 | 82 | 1012.0 |
| 20260505192738 | 53 | 135 | 0.0 | 26.9 | 0.00 | 0.04 | 0.03 | 80 | 1011.8 |
| 20260505191521 | 54 | 135 | 0.0 | 26.9 | 0.00 | 0.04 | 0.03 | 78 | 1011.5 |
| 20260505185046 | 56 | 315 | 1.7 | 26.9 | 0.00 | 0.04 | 0.03 | 72 | 1011.0 |
| 20260505183829 | 57 | 270 | 4.3 | 26.9 | 0.00 | 0.04 | 0.03 | 70 | 1010.7 |
| 20260505182612 | 58 | 292 | 5.2 | 26.9 | 0.00 | 0.04 | 0.03 | 68 | 1010.8 |
| 20260505181355 | 58 | 315 | 3.5 | 26.9 | 0.00 | 0.04 | 0.03 | 70 | 1010.7 |
| 20260505180137 | 59 | 292 | 0.0 | 26.9 | 0.00 | 0.04 | 0.03 | 68 | 1010.5 |